When you browse on this site, cookies collect data to enhance your experience and personalize the content and advertising you see.
Visit our Privacy Policy to learn more. By continuing to use the site, you agree to this use of cookies and data.
  • In Hungary
  • List of Countries
  • For 7 days
  • Water Temperature
  • Weather Map
  • News
  • Weather Widgets
  • user-avatar
    Login

    Hourly Weather Novo-Troickoe

    Today, 25 August, Sunday

    Time Temperature Precipitation Wind Pressure Humidity
    00:00 +14°C° 0 mm 2 mps 749 mmHg 95%
    01:00 +13°C° 0 mm 2 mps 750 mmHg 95%
    02:00 +13°C° 0 mm 2 mps 750 mmHg 95%
    03:00 +13°C° 0 mm 2 mps 750 mmHg 95%
    04:00 +13°C° 0 mm 2 mps 750 mmHg 95%
    05:00 +12°C° 0 mm 2 mps 750 mmHg 95%
    06:00 +14°C° 0 mm 2 mps 751 mmHg 90%
    07:00 +15°C° 0 mm 2 mps 751 mmHg 85%
    08:00 +17°C° 0 mm 2 mps 752 mmHg 80%
    09:00 +18°C° 0 mm 3 mps 752 mmHg 74%
    10:00 +19°C° 0 mm 3 mps 752 mmHg 69%
    11:00 +19°C° 0 mm 3 mps 752 mmHg 64%
    12:00 +20°C° 0 mm 3 mps 752 mmHg 64%
    13:00 +20°C° 0 mm 3 mps 752 mmHg 63%
    14:00 +20°C° 0 mm 3 mps 752 mmHg 61%
    15:00 +20°C° 0 mm 2 mps 752 mmHg 64%
    16:00 +20°C° 0 mm 2 mps 752 mmHg 67%
    17:00 +21°C° 0 mm 1 mps 752 mmHg 70%
    18:00 +19°C° 0 mm 1 mps 752 mmHg 75%
    19:00 +16°C° 0 mm 1 mps 752 mmHg 80%
    20:00 +14°C° 0 mm 1 mps 752 mmHg 85%
    21:00 +14°C° 0 mm 1 mps 752 mmHg 87%
    22:00 +13°C° 0 mm 1 mps 752 mmHg 88%
    23:00 +12°C° 0 mm 1 mps 752 mmHg 90%

    Tomorrow, 26 August, Monday

    Time Temperature Precipitation Wind Pressure Humidity
    00:00 +12°C° 0 mm 1 mps 753 mmHg 90%
    01:00 +12°C° 0 mm 1 mps 753 mmHg 91%
    02:00 +12°C° 0 mm 1 mps 753 mmHg 91%
    03:00 +11°C° 0 mm 1 mps 753 mmHg 92%
    04:00 +11°C° 0 mm 1 mps 753 mmHg 92%
    05:00 +11°C° 0 mm 1 mps 753 mmHg 93%
    06:00 +13°C° 0 mm 1 mps 753 mmHg 87%
    07:00 +15°C° 0 mm 1 mps 753 mmHg 81%
    08:00 +18°C° 0 mm 1 mps 753 mmHg 75%
    09:00 +19°C° 0 mm 1 mps 753 mmHg 70%
    10:00 +20°C° 0 mm 2 mps 752 mmHg 65%
    11:00 +21°C° 0 mm 2 mps 752 mmHg 60%
    12:00 +21°C° 0 mm 2 mps 752 mmHg 59%
    13:00 +22°C° 0 mm 3 mps 752 mmHg 58%
    14:00 +22°C° 0 mm 3 mps 751 mmHg 57%
    15:00 +22°C° 0 mm 3 mps 751 mmHg 61%
    16:00 +21°C° 0 mm 2 mps 750 mmHg 66%
    17:00 +21°C° 0 mm 2 mps 750 mmHg 70%
    18:00 +19°C° 0 mm 2 mps 750 mmHg 75%
    19:00 +18°C° 0 mm 2 mps 749 mmHg 79%
    20:00 +16°C° 0 mm 3 mps 749 mmHg 84%
    21:00 +16°C° 0 mm 3 mps 749 mmHg 85%
    22:00 +16°C° 0 mm 3 mps 749 mmHg 87%
    23:00 +16°C° 0 mm 3 mps 748 mmHg 88%

    Day after tomorrow, 27 August, Tuesday

    Time Temperature Precipitation Wind Pressure Humidity
    00:00 +16°C° 0 mm 3 mps 748 mmHg 89%
    01:00 +16°C° 0 mm 3 mps 748 mmHg 91%
    02:00 +16°C° 0 mm 3 mps 748 mmHg 93%
    03:00 +14°C° 0 mm 3 mps 748 mmHg 94%
    04:00 +14°C° 0 mm 3 mps 747 mmHg 95%
    05:00 +14°C° 0 mm 3 mps 747 mmHg 97%
    06:00 +15°C° 0 mm 4 mps 747 mmHg 93%
    07:00 +17°C° 0 mm 4 mps 747 mmHg 89%
    08:00 +18°C° 0 mm 4 mps 747 mmHg 85%
    09:00 +19°C° 0 mm 4 mps 747 mmHg 77%
    10:00 +20°C° 0 mm 5 mps 747 mmHg 69%
    11:00 +21°C° 0 mm 5 mps 747 mmHg 61%
    12:00 +21°C° 0 mm 5 mps 748 mmHg 60%
    13:00 +21°C° 0 mm 5 mps 748 mmHg 58%
    14:00 +22°C° 0 mm 5 mps 748 mmHg 57%
    15:00 +21°C° 0 mm 4 mps 748 mmHg 61%
    16:00 +21°C° 0 mm 4 mps 748 mmHg 65%
    17:00 +20°C° 0 mm 3 mps 748 mmHg 69%
    18:00 +18°C° 0 mm 3 mps 748 mmHg 73%
    19:00 +17°C° 0 mm 3 mps 748 mmHg 77%
    20:00 +14°C° 0 mm 3 mps 748 mmHg 81%
    21:00 +13°C° 0 mm 3 mps 749 mmHg 85%
    22:00 +13°C° 0 mm 2 mps 749 mmHg 88%
    23:00 +13°C° 0 mm 2 mps 749 mmHg 92%

    28 August, Wednesday

    Time Temperature Precipitation Wind Pressure Humidity
    00:00 +12°C° 0 mm 2 mps 749 mmHg 92%
    01:00 +10°C° 0 mm 2 mps 750 mmHg 92%
    02:00 +10°C° 0 mm 2 mps 750 mmHg 92%
    03:00 +9°C° 0 mm 2 mps 750 mmHg 93%
    04:00 +9°C° 0 mm 2 mps 750 mmHg 94%
    05:00 +8°C° 0 mm 2 mps 751 mmHg 94%
    06:00 +10°C° 0 mm 3 mps 751 mmHg 88%
    07:00 +11°C° 0 mm 3 mps 751 mmHg 82%
    08:00 +12°C° 0 mm 3 mps 751 mmHg 76%
    09:00 +13°C° 0 mm 3 mps 751 mmHg 69%
    10:00 +14°C° 0 mm 3 mps 751 mmHg 62%
    11:00 +15°C° 0 mm 4 mps 751 mmHg 55%
    12:00 +17°C° 0 mm 4 mps 751 mmHg 53%
    13:00 +17°C° 0 mm 4 mps 751 mmHg 51%
    14:00 +17°C° 0 mm 3 mps 751 mmHg 48%
    15:00 +17°C° 0 mm 3 mps 751 mmHg 52%
    16:00 +16°C° 0 mm 3 mps 751 mmHg 57%
    17:00 +16°C° 0 mm 2 mps 751 mmHg 61%
    18:00 +14°C° 0 mm 2 mps 751 mmHg 63%
    19:00 +12°C° 0 mm 2 mps 752 mmHg 66%
    20:00 +9°C° 0 mm 2 mps 752 mmHg 69%
    21:00 +9°C° 0 mm 2 mps 752 mmHg 69%
    22:00 +9°C° 0 mm 1 mps 752 mmHg 70%
    23:00 +9°C° 0 mm 1 mps 752 mmHg 71%

    29 August, Thursday

    Time Temperature Precipitation Wind Pressure Humidity
    00:00 +8°C° 0 mm 1 mps 752 mmHg 72%
    01:00 +8°C° 0 mm 1 mps 752 mmHg 73%
    02:00 +6°C° 0 mm 0 mps 752 mmHg 74%
    03:00 +6°C° 0 mm 0 mps 752 mmHg 74%
    04:00 +6°C° 0 mm 0 mps 752 mmHg 74%
    05:00 +6°C° 0 mm 0 mps 752 mmHg 74%
    06:00 +9°C° 0 mm 1 mps 752 mmHg 68%
    07:00 +11°C° 0 mm 1 mps 752 mmHg 63%
    08:00 +13°C° 0 mm 1 mps 752 mmHg 58%
    09:00 +15°C° 0 mm 1 mps 752 mmHg 55%
    10:00 +16°C° 0 mm 1 mps 752 mmHg 52%
    11:00 +18°C° 0 mm 2 mps 752 mmHg 49%
    12:00 +19°C° 0 mm 2 mps 752 mmHg 51%
    13:00 +19°C° 0 mm 2 mps 751 mmHg 52%
    14:00 +20°C° 0 mm 2 mps 751 mmHg 54%
    15:00 +20°C° 0 mm 2 mps 751 mmHg 58%
    16:00 +21°C° 0 mm 1 mps 751 mmHg 63%
    17:00 +20°C° 0 mm 1 mps 750 mmHg 67%
    18:00 +18°C° 0 mm 1 mps 750 mmHg 72%
    19:00 +16°C° 0 mm 1 mps 750 mmHg 76%
    20:00 +14°C° 0 mm 2 mps 750 mmHg 80%
    21:00 +13°C° 0 mm 2 mps 750 mmHg 80%
    22:00 +13°C° 0 mm 2 mps 750 mmHg 81%
    23:00 +12°C° 0 mm 2 mps 750 mmHg 81%

    30 August, Friday

    Time Temperature Precipitation Wind Pressure Humidity
    00:00 +12°C° 0 mm 2 mps 750 mmHg 82%
    01:00 +12°C° 0 mm 2 mps 750 mmHg 83%
    02:00 +11°C° 0 mm 1 mps 750 mmHg 84%
    03:00 +10°C° 0 mm 2 mps 750 mmHg 84%
    04:00 +10°C° 0 mm 2 mps 750 mmHg 84%
    05:00 +10°C° 0 mm 2 mps 750 mmHg 84%
    06:00 +13°C° 0 mm 2 mps 750 mmHg 79%
    07:00 +14°C° 0 mm 2 mps 750 mmHg 74%
    08:00 +16°C° 0 mm 2 mps 750 mmHg 68%
    09:00 +17°C° 0 mm 2 mps 750 mmHg 64%
    10:00 +19°C° 0 mm 2 mps 750 mmHg 61%
    11:00 +20°C° 0 mm 2 mps 750 mmHg 57%
    12:00 +21°C° 0 mm 2 mps 750 mmHg 56%
    13:00 +21°C° 0 mm 2 mps 750 mmHg 55%
    14:00 +22°C° 0 mm 1 mps 749 mmHg 54%
    15:00 +22°C° 0 mm 1 mps 749 mmHg 59%
    16:00 +21°C° 0 mm 1 mps 749 mmHg 64%
    17:00 +21°C° 0 mm 1 mps 749 mmHg 68%
    18:00 +19°C° 0 mm 1 mps 749 mmHg 72%
    19:00 +18°C° 0 mm 1 mps 749 mmHg 76%
    20:00 +14°C° 0 mm 0 mps 749 mmHg 79%
    21:00 +14°C° 0 mm 1 mps 749 mmHg 81%
    22:00 +14°C° 0 mm 1 mps 749 mmHg 83%
    23:00 +13°C° 0 mm 1 mps 749 mmHg 84%
    Show more